Regional Weather Roundup
Issued by NWS Columbia, SC

Home | Current Version | Previous Version | Text Only | Print | Product List | Glossary On
Versions: 1 2 3 4 5 6 7 8 9 10 11 12 13 14 15 16 17 18 19 20 21 22 23 24 25 26 27 28 29 30 31 32 33 34 35 36 37 38 39 40 41 42 43 44 45 46 47 48 49 50
000
ASUS42 KCAE 192010
RWRCAE
REGIONAL WEATHER ROUNDUP
NATIONAL WEATHER SERVICE COLUMBIA SC
300 PM EST SUN NOV 19 2017

NOTE: "FAIR" INDICATES FEW OR NO CLOUDS BELOW 12,000 FEET WITH NO
SIGNIFICANT WEATHER AND/OR OBSTRUCTIONS TO VISIBILITY.

NOT ALL STATIONS ARE QUALITY CONTROLLED BY THE NATIONAL
WEATHER SERVICE. USE DATA WITH CAUTION...ESPECIALLY
DEWPOINT OBSERVATIONS.

SCZ001>056-GAZ040-063>065-077-192100-
...UPSTATE SOUTH CAROLINA...

CITY           SKY/WX    TMP DP  RH WIND       PRES   REMARKS
ANDERSON       SUNNY     58  32  37 SW14      29.92S
LIBERTY        CLEAR     57  30  36 W14G21    29.91S
SPARTANBURG    SUNNY     54  28  37 N13       29.91S
CLEMSON        SUNNY     55  28  35 W12       29.93S
GREENVILLE     SUNNY     57  32  38 NE8       29.91S
GREENWOOD      SUNNY     58  32  37 W12       29.93R
GREER          SUNNY     54  30  40 N9        29.91F
ROCK HILL      SUNNY     58  31  35 NW7       29.88F
CHESTER        CLEAR     57  27  30 W6        29.90R
LAURENS        CLEAR     59  32  36 NW9       29.90S


...CENTRAL SOUTH CAROLINA...

CITY           SKY/WX    TMP DP  RH WIND       PRES   REMARKS
COLUMBIA APT   MOSUNNY   65  40  39 NW9G20    29.88S
COLUMBIA OWENS SUNNY     63  34  33 W13G20    29.89R
MCENTIRE ANGB  SUNNY     65  26  23 NW9       29.87S
ORANGEBURG     SUNNY     64  30  27 N8        29.87S
SUMTER SHAW    SUNNY     64  25  22 NW15G21   29.84R
NEWBERRY       CLEAR     61  34  36 W12       29.93R
AIKEN          FAIR      59  32  36 NW13G18   29.94R
BARNWELL         N/A     64  37  36 W12       29.90R
MANNING        FAIR      64  39  39 MISG      29.86R
CAMDEN         FAIR      63  30  29 NW14      29.88R
LANCASTER      CLEAR     59  30  33 W8        29.89R
WINNSBORO      CLEAR     61  27  27 NW12      29.88S


...EASTERN AND COASTAL SOUTH CAROLINA...

CITY           SKY/WX    TMP DP  RH WIND       PRES   REMARKS
MYRTLE BEACH   SUNNY     65  36  34 NW15      29.82R
N MYRTLE BCH   SUNNY     65  30  27 N12G21    29.80R
CONWAY         FAIR      63  34  34 NW5       29.83R
MARION         FAIR      63  28  27 NW10G23   29.84R
HARTSVILLE     FAIR      63  28  27 NW5       29.85R
FLORENCE       SUNNY     64  30  27 NW16G23   29.84S
DARLINGTON     SUNNY     63  30  28 NW9G20    29.86R
CHARLESTON APT MOSUNNY   66  42  41 W13       29.84S
MOUNT PLEASANT FAIR      66  41  39 NW10      29.84S
WALTERBORO     CLEAR     64  37  36 NW10      29.88S


...EASTERN GEORGIA...

CITY           SKY/WX    TMP DP  RH WIND       PRES   REMARKS
AUGUSTA BUSH F SUNNY     64  34  32 NW12      29.91S
AUGUSTA DANIEL SUNNY     62  32  32 W10G21    29.92S
THOMSON        SUNNY     58  29  32 N15G23    30.00R
WASHINGTON     FAIR      55  32  41 NW13G23   29.95S
CLAXTON        FAIR      64  39  39 W10       29.92S
SYLVANIA       CLEAR     64  41  43 NW10      29.91S
STATESBORO     SUNNY     64  33  31 W13       29.91F
SAVANNAH       MOSUNNY   66  42  41 NW14      29.89F


...SOUTHERN NORTH CAROLINA...

CITY           SKY/WX    TMP DP  RH WIND       PRES   REMARKS
CHARLOTTE      MOSUNNY   58  27  30 NW13G22   29.89S
MONROE         SUNNY     58  24  27 NW16G24   29.87R
WADESBORO      CLEAR     61  25  25 NW15G25   29.86S
RUTHERFORDTON  SUNNY     51  26  37 W14G21    29.93S
ASHEVILLE      SUNNY     44  28  53 N20G30    29.95R

$$



USA.gov is the U.S. government's official web portal to all federal, state and local government web resources and services.